sat.trackr.live / text

‹ back to catalog

STARLINK-32233

NORAD 60434 · 2024-144K

PAYLOAD ACTIVE UNKNOWN

§ Identity

Operator
Country
US
Launch date
2024-08-12
Launch site
AFETR
Launch vehicle
Mass (kg)
RCS (m²)

Purposes: comms

External: N2YO · Heavens-Above · Gunter

§ Orbital elements

Epoch: 2026-05-25T04:44:07.539936Z

Period
93.85 min
Inclination
53.1606°
Eccentricity
0.0001106
Mean motion
15.34388186 rev/d
Perigee alt
462.0 km
Apogee alt
463.5 km
Semi-major
6,840.9 km
B*
4.5914e-5
RAAN
220.9937°
Arg perigee
95.0026°
Mean anomaly
265.1103°
Rev number
10,103

§ Raw data

STARLINK-322331 60434U 24144K   26145.19730949  .00001175  00000+0  45914-4 0  99922 60434  53.1606 220.9937 0001106  95.0026 265.1103 15.34388186101032

JSON: /api/v1/satellites/60434 · /tle

For live sub-satellite position, see the globe view (requires WebGL).

§ Visibility from observer

Set your observer location to see the next 7 days of passes ≥ 10°. The values pass through the URL so the page stays shareable.

No JS? Fill the form by hand. The geolocation button needs JavaScript.